UAE59U OMDB-OBBI

Flight info

Callsign UAE59U
Flight time 0h 48m
Altitude 26000
Route NABIX P699 ORMID M556 ORDIG
Aircraft A388/J-SADE2E3FGHIJ3J4J5M1RWXY/LB1D1

Departure

Time 2026-04-26 15:57
Airport Dubai International Airport (OMDB)

Arrival

Time 2026-04-26 16:46
Airport Bahrain International Airport (OBBI)
Time Latitude Longitude Altitude Speed Heading
2026-04-26 15:36 25.24064 55.37488 27 ft 0 kts 355°
2026-04-26 15:47 25.24049 55.37490 32 ft 4 kts 355°
2026-04-26 15:48 25.24025 55.37492 32 ft 3 kts 355°
2026-04-26 15:48 25.24001 55.37488 32 ft 4 kts 37°
2026-04-26 15:48 25.23985 55.37466 32 ft 4 kts 73°
2026-04-26 15:48 25.23982 55.37438 32 ft 4 kts 98°
2026-04-26 15:49 25.23991 55.37411 32 ft 4 kts 122°
2026-04-26 15:49 25.24005 55.37386 32 ft 3 kts 122°
2026-04-26 15:49 25.24007 55.37383 32 ft 1 kts 122°
2026-04-26 15:52 25.24003 55.37389 32 ft 3 kts 122°
2026-04-26 15:52 25.23990 55.37413 32 ft 8 kts 122°
2026-04-26 15:53 25.23964 55.37518 27 ft 14 kts 82°
2026-04-26 15:53 25.24021 55.37613 31 ft 17 kts 31°
2026-04-26 15:53 25.24129 55.37686 29 ft 20 kts 31°
2026-04-26 15:53 25.24234 55.37755 28 ft 16 kts 31°
2026-04-26 15:54 25.24336 55.37824 27 ft 19 kts 31°
2026-04-26 15:54 25.24447 55.37902 29 ft 19 kts 33°
2026-04-26 15:54 25.24539 55.37968 29 ft 15 kts 33°
2026-04-26 15:54 25.24594 55.38011 28 ft 5 kts 38°
2026-04-26 15:55 25.24621 55.38033 28 ft 2 kts 38°
2026-04-26 15:55 25.24631 55.38042 28 ft 0 kts 38°
2026-04-26 15:55 25.24637 55.38047 28 ft 4 kts 38°
2026-04-26 15:55 25.24671 55.38073 29 ft 8 kts 33°
2026-04-26 15:56 25.24723 55.38109 31 ft 9 kts 19°
2026-04-26 15:56 25.24768 55.38090 31 ft 8 kts 303°
2026-04-26 15:56 25.24792 55.38048 30 ft 11 kts 303°
2026-04-26 15:56 25.24993 55.37688 31 ft 87 kts 301°
2026-04-26 15:57 25.25414 55.36930 30 ft 139 kts 301°
2026-04-26 15:57 25.25962 55.35941 245 ft 152 kts 298°
2026-04-26 15:57 25.26317 55.35288 571 ft 148 kts 298°
2026-04-26 15:57 25.26659 55.34635 808 ft 151 kts 300°
2026-04-26 15:58 25.27423 55.33304 1288 ft 150 kts 298°
2026-04-26 15:58 25.27939 55.32328 1709 ft 147 kts 296°
2026-04-26 15:58 25.28407 55.31321 2112 ft 146 kts 294°
2026-04-26 15:58 25.28912 55.30308 2375 ft 156 kts 301°
2026-04-26 15:59 25.29372 55.29153 2545 ft 174 kts 277°
2026-04-26 15:59 25.29226 55.27787 2756 ft 188 kts 254°
2026-04-26 15:59 25.28616 55.26383 2957 ft 216 kts 244°
2026-04-26 15:59 25.27845 55.24848 3202 ft 240 kts 252°
2026-04-26 16:00 25.27516 55.22985 3553 ft 256 kts 266°
2026-04-26 16:00 25.27356 55.21026 4200 ft 260 kts 268°
2026-04-26 16:00 25.27209 55.19019 4923 ft 264 kts 268°
2026-04-26 16:00 25.27050 55.16988 5675 ft 266 kts 268°
2026-04-26 16:01 25.26874 55.14886 6070 ft 285 kts 268°
2026-04-26 16:01 25.26678 55.12614 6294 ft 307 kts 267°
2026-04-26 16:01 25.26461 55.10189 6469 ft 326 kts 267°
2026-04-26 16:01 25.26227 55.07621 6628 ft 345 kts 266°
2026-04-26 16:02 25.25979 55.04919 6865 ft 360 kts 266°
2026-04-26 16:02 25.25723 55.02148 7410 ft 364 kts 266°
2026-04-26 16:02 25.25468 54.99385 8003 ft 367 kts 266°
2026-04-26 16:02 25.25292 54.97483 8406 ft 370 kts 265°
2026-04-26 16:03 25.24941 54.93675 9246 ft 375 kts 265°
2026-04-26 16:03 25.24679 54.90834 9886 ft 378 kts 265°
2026-04-26 16:03 25.24411 54.87931 10528 ft 380 kts 265°
2026-04-26 16:03 25.24141 54.85011 11119 ft 383 kts 265°
2026-04-26 16:04 25.23869 54.82070 11762 ft 386 kts 265°
2026-04-26 16:04 25.23594 54.79108 12351 ft 389 kts 265°
2026-04-26 16:04 25.23315 54.76115 12929 ft 392 kts 265°
2026-04-26 16:04 25.23035 54.73112 13497 ft 395 kts 265°
2026-04-26 16:05 25.22755 54.70108 14001 ft 398 kts 265°
2026-04-26 16:05 25.22472 54.67056 14526 ft 400 kts 266°
2026-04-26 16:05 25.22580 54.63986 15005 ft 402 kts 280°
2026-04-26 16:05 25.23180 54.60958 15467 ft 405 kts 282°
2026-04-26 16:06 25.23824 54.57912 15934 ft 408 kts 282°
2026-04-26 16:06 25.24463 54.54853 16399 ft 410 kts 282°
2026-04-26 16:06 25.25097 54.51764 16837 ft 412 kts 282°
2026-04-26 16:06 25.25718 54.48701 17281 ft 415 kts 281°
2026-04-26 16:07 25.26347 54.45577 17698 ft 418 kts 281°
2026-04-26 16:07 25.26978 54.42434 18152 ft 420 kts 281°
2026-04-26 16:07 25.27611 54.39273 18526 ft 422 kts 281°
2026-04-26 16:07 25.28245 54.36101 18947 ft 423 kts 280°
2026-04-26 16:08 25.28881 54.32924 19364 ft 424 kts 280°
2026-04-26 16:08 25.29517 54.29736 19738 ft 425 kts 280°
2026-04-26 16:08 25.30156 54.26531 20134 ft 426 kts 280°
2026-04-26 16:08 25.30786 54.23372 20529 ft 427 kts 280°
2026-04-26 16:09 25.31428 54.20146 20877 ft 430 kts 280°
2026-04-26 16:09 25.32071 54.16909 21286 ft 431 kts 280°
2026-04-26 16:09 25.32715 54.13665 21714 ft 433 kts 280°
2026-04-26 16:09 25.33360 54.10409 22104 ft 434 kts 280°
2026-04-26 16:10 25.34010 54.07128 22524 ft 436 kts 279°
2026-04-26 16:10 25.34659 54.03842 22949 ft 438 kts 279°
2026-04-26 16:10 25.35303 54.00584 23379 ft 440 kts 279°
2026-04-26 16:10 25.35958 53.97265 23740 ft 443 kts 279°
2026-04-26 16:11 25.36618 53.93915 24100 ft 446 kts 279°
2026-04-26 16:11 25.37272 53.90592 24582 ft 445 kts 279°
2026-04-26 16:11 25.37930 53.87247 25119 ft 445 kts 280°
2026-04-26 16:11 25.38587 53.83899 25503 ft 448 kts 280°
2026-04-26 16:12 25.39250 53.80519 25838 ft 450 kts 280°
2026-04-26 16:12 25.39913 53.77132 25884 ft 451 kts 280°
2026-04-26 16:12 25.41239 53.70353 25881 ft 450 kts 280°
2026-04-26 16:13 25.41899 53.66968 25881 ft 450 kts 280°
2026-04-26 16:13 25.42558 53.63585 25881 ft 450 kts 280°
2026-04-26 16:13 25.43219 53.60191 25881 ft 450 kts 280°
2026-04-26 16:13 25.43876 53.56807 25881 ft 450 kts 280°
2026-04-26 16:14 25.44525 53.53460 25887 ft 450 kts 280°
2026-04-26 16:14 25.45182 53.50072 25883 ft 450 kts 280°
2026-04-26 16:14 25.46496 53.43276 25887 ft 450 kts 280°
2026-04-26 16:15 25.47152 53.39880 25900 ft 450 kts 280°
2026-04-26 16:15 25.47792 53.36560 25887 ft 444 kts 281°
2026-04-26 16:15 25.48436 53.33218 25886 ft 444 kts 280°
2026-04-26 16:16 25.49721 53.26528 25888 ft 444 kts 280°
2026-04-26 16:16 25.50364 53.23175 25889 ft 445 kts 280°
2026-04-26 16:16 25.51007 53.19819 25889 ft 446 kts 280°
2026-04-26 16:16 25.51650 53.16459 25890 ft 446 kts 280°
2026-04-26 16:17 25.52291 53.13102 25889 ft 446 kts 280°
2026-04-26 16:17 25.52932 53.09744 25889 ft 445 kts 280°
2026-04-26 16:17 25.53572 53.06384 25890 ft 445 kts 280°
2026-04-26 16:17 25.54203 53.03069 25892 ft 445 kts 280°
2026-04-26 16:18 25.54841 52.99713 25889 ft 445 kts 280°
2026-04-26 16:18 25.56213 52.93009 25896 ft 447 kts 284°
2026-04-26 16:19 25.58597 52.86634 25894 ft 446 kts 295°
2026-04-26 16:19 25.60095 52.83624 25894 ft 445 kts 295°
2026-04-26 16:19 25.62549 52.78595 25895 ft 446 kts 294°
2026-04-26 16:20 25.64502 52.74570 25897 ft 447 kts 294°
2026-04-26 16:20 25.67464 52.68473 25897 ft 448 kts 294°
2026-04-26 16:20 25.68930 52.65458 25900 ft 448 kts 294°
2026-04-26 16:21 25.70410 52.62413 25901 ft 448 kts 294°
2026-04-26 16:21 25.71895 52.59357 25900 ft 448 kts 294°
2026-04-26 16:21 25.73372 52.56312 25904 ft 448 kts 294°
2026-04-26 16:21 25.74851 52.53263 25904 ft 448 kts 294°
2026-04-26 16:22 25.76309 52.50254 25900 ft 449 kts 294°
2026-04-26 16:22 25.77766 52.47176 25902 ft 450 kts 293°
2026-04-26 16:22 25.79201 52.44076 25903 ft 450 kts 293°
2026-04-26 16:22 25.80628 52.40980 25903 ft 450 kts 293°
2026-04-26 16:23 25.82053 52.37894 25906 ft 450 kts 293°
2026-04-26 16:23 25.83478 52.34816 25906 ft 444 kts 293°
2026-04-26 16:23 25.84865 52.31835 25907 ft 426 kts 293°
2026-04-26 16:23 25.86273 52.28964 25908 ft 423 kts 297°
2026-04-26 16:24 25.87933 52.26245 25913 ft 429 kts 302°
2026-04-26 16:24 25.89836 52.23719 25906 ft 431 kts 308°
2026-04-26 16:24 25.91886 52.21287 25894 ft 427 kts 308°
2026-04-26 16:24 25.93871 52.18903 25690 ft 412 kts 307°
2026-04-26 16:25 25.95784 52.16590 25456 ft 400 kts 307°
2026-04-26 16:25 25.97645 52.14334 25228 ft 394 kts 307°
2026-04-26 16:25 25.99496 52.12084 24994 ft 395 kts 307°
2026-04-26 16:25 26.01359 52.09821 24766 ft 396 kts 307°
2026-04-26 16:26 26.03219 52.07567 24541 ft 395 kts 307°
2026-04-26 16:26 26.04449 52.06076 24384 ft 394 kts 307°
2026-04-26 16:26 26.06896 52.03100 24105 ft 388 kts 307°
2026-04-26 16:26 26.08611 52.00807 23840 ft 382 kts 303°
2026-04-26 16:27 26.10210 51.98447 23575 ft 381 kts 303°
2026-04-26 16:27 26.11786 51.96096 23087 ft 379 kts 303°
2026-04-26 16:27 26.13353 51.93747 22521 ft 376 kts 303°
2026-04-26 16:27 26.14885 51.91434 21881 ft 375 kts 303°
2026-04-26 16:28 26.16427 51.89087 21254 ft 373 kts 303°
2026-04-26 16:28 26.17946 51.86752 20642 ft 371 kts 303°
2026-04-26 16:28 26.19447 51.84422 20041 ft 369 kts 303°
2026-04-26 16:28 26.20933 51.82097 19459 ft 367 kts 303°
2026-04-26 16:29 26.22405 51.79773 18900 ft 366 kts 303°
2026-04-26 16:29 26.23861 51.77467 18414 ft 362 kts 303°
2026-04-26 16:29 26.25300 51.75171 17802 ft 361 kts 303°
2026-04-26 16:29 26.26722 51.72885 17203 ft 358 kts 303°
2026-04-26 16:30 26.28132 51.70613 16631 ft 355 kts 303°
2026-04-26 16:30 26.29533 51.68352 16127 ft 353 kts 303°
2026-04-26 16:30 26.30922 51.66106 15947 ft 352 kts 303°
2026-04-26 16:30 26.32294 51.63884 15923 ft 353 kts 303°
2026-04-26 16:31 26.33689 51.61626 15926 ft 354 kts 303°
2026-04-26 16:31 26.35079 51.59363 15925 ft 353 kts 301°
2026-04-26 16:31 26.36025 51.56859 15923 ft 351 kts 281°
2026-04-26 16:31 26.36109 51.54153 15924 ft 350 kts 263°
2026-04-26 16:32 26.35796 51.51455 15922 ft 351 kts 263°
2026-04-26 16:32 26.35586 51.49671 15921 ft 351 kts 263°
2026-04-26 16:32 26.35162 51.46074 15828 ft 348 kts 263°
2026-04-26 16:32 26.34847 51.43399 15458 ft 346 kts 263°
2026-04-26 16:33 26.34531 51.40749 14912 ft 344 kts 263°
2026-04-26 16:33 26.34218 51.38104 14345 ft 344 kts 263°
2026-04-26 16:33 26.33907 51.35466 13785 ft 342 kts 263°
2026-04-26 16:33 26.33599 51.32844 13226 ft 340 kts 263°
2026-04-26 16:34 26.33293 51.30254 12723 ft 335 kts 263°
2026-04-26 16:34 26.32985 51.27686 12148 ft 333 kts 263°
2026-04-26 16:34 26.32678 51.25164 11589 ft 331 kts 263°
2026-04-26 16:34 26.32363 51.22629 11073 ft 328 kts 263°
2026-04-26 16:35 26.32050 51.20156 10917 ft 314 kts 263°
2026-04-26 16:35 26.31748 51.17792 10799 ft 301 kts 263°
2026-04-26 16:35 26.31458 51.15531 10689 ft 288 kts 263°
2026-04-26 16:35 26.31176 51.13365 10407 ft 283 kts 263°
2026-04-26 16:36 26.30891 51.11195 10029 ft 282 kts 263°
2026-04-26 16:36 26.30605 51.09040 9638 ft 281 kts 263°
2026-04-26 16:36 26.30302 51.06891 9228 ft 279 kts 258°
2026-04-26 16:36 26.29480 51.04965 8815 ft 283 kts 233°
2026-04-26 16:37 26.27955 51.03584 8421 ft 285 kts 213°
2026-04-26 16:37 26.26231 51.02480 8037 ft 284 kts 213°
2026-04-26 16:37 26.24532 51.01393 7506 ft 282 kts 213°
2026-04-26 16:37 26.23397 51.00668 7129 ft 283 kts 213°
2026-04-26 16:38 26.21124 50.99217 6563 ft 280 kts 213°
2026-04-26 16:38 26.19443 50.98144 6176 ft 275 kts 213°
2026-04-26 16:38 26.17823 50.97112 6056 ft 261 kts 213°
2026-04-26 16:38 26.16305 50.96149 5868 ft 245 kts 213°
2026-04-26 16:39 26.14955 50.95101 5745 ft 223 kts 233°
2026-04-26 16:39 26.14326 50.93634 5619 ft 211 kts 265°
2026-04-26 16:39 26.14310 50.92055 5336 ft 197 kts 273°
2026-04-26 16:39 26.14348 50.90537 4986 ft 197 kts 273°
2026-04-26 16:40 26.14387 50.89008 4636 ft 198 kts 273°
2026-04-26 16:40 26.14429 50.87473 4263 ft 197 kts 273°
2026-04-26 16:40 26.14537 50.85956 3975 ft 196 kts 282°
2026-04-26 16:40 26.14992 50.84528 3808 ft 196 kts 296°
2026-04-26 16:41 26.15653 50.83213 3606 ft 193 kts 301°
2026-04-26 16:41 26.16366 50.81972 3373 ft 188 kts 302°
2026-04-26 16:41 26.17069 50.80749 3152 ft 187 kts 302°
2026-04-26 16:41 26.17761 50.79547 2919 ft 186 kts 303°
2026-04-26 16:42 26.18464 50.78328 2694 ft 186 kts 303°
2026-04-26 16:42 26.19158 50.77121 2448 ft 181 kts 303°
2026-04-26 16:42 26.19812 50.75987 2230 ft 167 kts 304°
2026-04-26 16:42 26.20435 50.74905 2022 ft 165 kts 304°
2026-04-26 16:43 26.21052 50.73834 1804 ft 163 kts 305°
2026-04-26 16:43 26.21662 50.72774 1607 ft 162 kts 306°
2026-04-26 16:43 26.22065 50.72074 1465 ft 160 kts 306°
2026-04-26 16:43 26.22818 50.70762 1203 ft 144 kts 306°
2026-04-26 16:44 26.23172 50.70147 1080 ft 141 kts 306°
2026-04-26 16:44 26.23701 50.69232 921 ft 140 kts 306°
2026-04-26 16:44 26.24233 50.68315 751 ft 141 kts 304°
2026-04-26 16:44 26.24756 50.67393 573 ft 141 kts 305°
2026-04-26 16:45 26.25456 50.66182 330 ft 138 kts 305°
2026-04-26 16:45 26.25808 50.65575 206 ft 139 kts 306°
2026-04-26 16:45 26.26332 50.64664 39 ft 138 kts 304°
2026-04-26 16:45 26.26796 50.63878 29 ft 102 kts 303°
2026-04-26 16:46 26.27082 50.63367 26 ft 47 kts 303°
2026-04-26 16:46 26.27202 50.63156 28 ft 28 kts 295°
2026-04-26 16:46 26.27249 50.62959 25 ft 21 kts 276°
2026-04-26 16:46 26.27257 50.62871 28 ft 7 kts 276°
2026-04-26 16:47 26.27257 50.62816 28 ft 4 kts 231°
2026-04-26 16:47 26.27223 50.62807 27 ft 6 kts 158°
2026-04-26 16:47 26.27186 50.62853 28 ft 11 kts 125°
2026-04-26 16:47 26.27138 50.62928 29 ft 11 kts 127°
2026-04-26 16:48 26.27089 50.62999 28 ft 13 kts 127°
2026-04-26 16:48 26.27034 50.63088 27 ft 15 kts 123°
2026-04-26 16:48 26.26968 50.63201 25 ft 19 kts 123°
2026-04-26 16:48 26.26895 50.63324 26 ft 17 kts 123°
2026-04-26 16:49 26.26827 50.63383 27 ft 12 kts 200°
2026-04-26 16:49 26.26748 50.63391 26 ft 13 kts 135°
2026-04-26 16:49 26.26703 50.63431 27 ft 4 kts 181°
2026-04-26 16:49 26.26668 50.63415 25 ft 6 kts 212°
2026-04-26 16:50 26.26639 50.63394 29 ft 3 kts 213°
2026-04-26 16:50 26.26634 50.63391 28 ft 0 kts 213°